Location: Saratoga Springs
(43.0831°N, 73.7850°W)
Time: 18:16:46
(UTC-04:00)

Tiros 1 despin weight - Pass Details

Date: 16 April 2024
Orbit: 578 x 620 km, 48.2° (Epoch: 29 May)

Event Time Altitude Azimuth Distance (km) Brightness Sun altitude
Rises 14:57:26 0° 230° (SW) 2,826 ? 47.9°
Reaches altitude 10° 14:59:43 10° 226° (SW) 1,935 ? 47.6°
Drops below altitude 10° 15:08:31 10° 70° (ENE) 1,970 ? 46.4°
Enters shadow 15:23:28 -30° 63° (ENE) 7,578 ? 44.2°
Exits shadow 15:58:57 -82° 245° (WSW) 13,223 ? 38.5°
Maximum altitude 16:45:20 52° 347° (NNW) 762 ? 30.6°
Sets 16:52:11 0° 69° (ENE) 2,892 ? 29.4°
